Погода в Пушкино

Россия / Республика Крым     45°50′44″N   34°23′18″E
темп.,
°C
ветер,
м/с
пор.,
м/с
влажн.,
%
обл.,
%
осадки,
мм/ч
давл.,
гПа
погр.,
м
5 декабря, вс
вс500:00+6св6894100 3.1 1008466
03:00+5с5693100 6.8 1009397
06:00+4сз468988 0.0 1010394
09:00+5сз3587100 0.1 1012421
12:00+6зсз3480100 0.0 1013475
15:00+7сз2274100 0.0 1013464
18:00+5св2283100 0.0 101433
21:00+4вюв22895 0.0 101531
6 декабря, пн
пн600:00+4вюв229157 0.0 101528
03:00+4вюв339356 0.0 101633
06:00+6юв2491100 0.0 101569
09:00+7вюв3688100 0.0 1015136
12:00+10юв467647 0.0 1015239
15:00+14ююв356365 0.0 1014349
18:00+11ююв3479100 0.0 101450
21:00+12юв4776100 0.0 1014127
7 декабря, вт
вт700:00+12юв4774100 0.0 1014119
03:00+12ююв4970100 0.0 1013146
06:00+12ююв3463100 0.0 101262
09:00+12юв475897 0.0 1012116
12:00+16юв594877 0.0 1011234
15:00+17юв46515 0.0 1009252
18:00+12вюв337686 0.0 100831
21:00+10вюв3581100 0.0 100789
8 декабря, ср
ср800:00+10вюв4987100 0.0 1005172
03:00+10юв51189100 0.0 1003211
06:00+10юв61285100 0.0 1002199
09:00+11ююв4873100 0.0 1002143
12:00+15ююз2451100 0.0 1003267
15:00+15з2558100 0.0 1002457
18:00+12юз61374100 0.0 1004524
21:00+11ююз8147183 0.0 1006943
9 декабря, чт
чт900:00+9ююз101583100 1.1 10071067
03:00+9юз91482100 1.9 1009873
06:00+8зюз81382100 0.0 1011858
09:00+8зюз81380100 0.0 1014843
12:00+9зюз81272100 0.0 1016931
15:00+9зюз796494 0.0 1017993
18:00+9зюз5763100 0.0 1019542
21:00+9ююз35674 0.0 1020219